Vorticity
21 22 21 17 16 17 15 14 13 12 12 17 23 21 13 13 16 12 11 15 18 16 16 17 16 15 14 19 14 7 11 6 5 9 5 4 -8 -21 -3 14 7 -1 1 -0 2 7 8 8 6 6 7 9 8 7 7 6 5 4 3 2 1 3 5 9 13 10 8 9 11 10 7 8 9 8 7 6 5 5 6 8 9 9 10 12 12 11 11 13
21 23 23 20 17 16 15 15 16 14 14 15 20 23 17 13 16 15 11 13 19 16 14 16 15 17 16 17 17 9 10 8 4 8 9 9 1 -13 -13 -5 -4 -5 -1 0 3 8 8 8 7 6 6 6 7 5 4 4 4 3 2 1 1 5 10 11 10 7 7 6 4 4 6 9 8 6 5 5 5 6 9 10 10 10 10 11 13 11 6 8
19 20 21 20 17 16 15 13 14 15 16 18 20 23 21 14 15 15 12 12 19 17 12 14 15 19 17 16 19 11 9 9 3 6 11 8 3 -1 -4 -7 -4 -2 0 4 8 8 8 9 9 9 8 7 6 6 5 3 4 2 1 2 2 8 11 8 6 6 7 4 4 8 10 8 5 5 6 6 6 8 9 9 9 9 11 11 11 12 9 9
17 19 21 20 19 18 18 17 16 15 14 19 22 23 21 16 15 15 13 11 18 17 12 13 15 21 19 14 19 13 8 10 5 3 7 9 7 4 2 0 3 3 2 6 9 7 8 10 9 10 9 8 5 4 5 5 5 3 3 4 5 11 10 6 6 5 6 8 10 11 8 6 6 7 9 9 9 9 9 10 12 12 12 12 12 16 15 15
13 17 20 21 22 21 21 20 19 18 17 20 24 23 20 16 16 17 14 10 16 16 11 13 14 21 21 14 19 16 10 10 6 2 1 7 12 7 3 4 6 5 4 6 9 9 10 11 8 7 6 7 6 3 4 5 8 6 4 6 7 8 6 5 6 6 9 10 8 7 7 9 10 11 10 11 10 9 13 15 14 12 10 13 18 21 18 17
12 15 19 20 21 21 23 21 19 19 20 22 23 22 21 18 18 19 15 10 14 14 12 13 12 20 23 16 18 17 13 9 7 5 1 2 9 12 8 7 8 4 3 6 11 12 10 8 6 4 4 5 6 5 4 4 9 8 7 8 5 5 4 7 10 9 9 8 7 9 11 12 12 11 8 9 10 12 16 16 13 10 13 19 23 21 19 17
12 13 15 19 20 20 23 22 20 19 22 25 21 23 24 21 21 21 15 10 12 14 13 12 12 20 23 18 18 17 14 10 6 1 4 8 3 6 5 4 6 1 3 9 12 11 7 7 6 4 4 5 7 6 6 7 11 10 7 7 4 6 7 9 10 7 7 8 10 11 12 13 11 9 8 7 9 14 17 16 16 17 20 24 21 20 23 20
12 14 13 17 17 17 21 24 23 20 23 26 19 22 25 21 23 20 13 10 12 13 14 11 10 18 23 20 17 17 15 10 9 -4 2 21 8 -1 4 5 7 4 5 10 10 7 6 7 6 5 4 5 7 7 8 10 13 9 4 6 7 8 9 8 8 7 7 10 11 13 14 14 10 6 7 7 10 14 15 16 18 17 19 22 17 19 24 20
10 13 14 17 16 16 21 22 24 23 25 28 19 19 22 21 22 17 12 11 11 14 15 9 6 16 22 21 17 18 15 9 11 -2 -3 23 16 1 6 9 8 3 6 10 7 7 6 5 4 6 5 4 9 11 9 6 8 7 5 8 8 8 8 7 9 9 10 13 16 16 13 11 8 7 7 8 12 15 12 12 15 14 16 17 13 13 17 15
11 13 15 18 17 16 21 20 23 24 26 29 19 16 19 20 20 15 12 12 12 14 14 8 4 12 18 21 19 15 16 10 11 7 -3 6 9 5 5 7 5 1 8 10 6 6 6 6 6 6 6 6 10 12 8 4 5 7 7 8 8 9 9 9 9 10 12 13 13 10 8 8 7 8 10 11 14 14 10 9 12 13 14 14 12 11 13 13
17 17 18 19 20 18 22 22 24 26 29 30 20 15 16 19 20 14 11 12 12 13 13 8 3 9 17 21 20 16 16 12 11 13 4 -5 -1 7 6 8 10 5 9 9 5 7 5 6 6 3 7 10 7 7 7 4 5 6 6 7 8 9 10 11 10 9 10 9 8 7 7 7 7 9 11 13 13 11 11 13 14 13 10 8 8 11 13 11
20 24 24 20 21 20 23 25 25 27 30 29 21 13 13 20 21 14 12 10 11 13 10 7 6 11 17 19 23 23 17 14 12 9 12 7 -3 2 3 1 9 9 8 9 6 7 6 6 8 10 16 16 7 5 7 4 5 8 9 9 8 9 11 12 11 9 10 8 7 7 8 8 9 13 13 11 10 10 13 13 11 10 9 8 7 9 11 10
16 27 28 21 20 21 24 25 25 29 29 27 20 13 14 20 19 12 11 10 9 11 10 9 9 11 15 18 19 19 19 16 9 6 14 8 2 24 26 4 5 7 3 7 6 5 6 4 10 17 15 12 7 4 5 6 8 9 9 9 11 12 11 9 7 9 10 7 7 8 8 10 12 14 11 9 12 14 12 10 11 13 13 12 11 11 10 10
15 28 25 18 18 19 24 25 23 25 25 22 18 14 16 17 14 11 10 10 9 10 12 11 9 12 18 21 18 17 21 10 5 29 50 38 34 47 30 2 4 9 7 10 7 8 10 3 7 12 8 6 7 5 5 7 10 12 11 10 11 13 13 10 5 9 10 3 6 9 6 11 16 12 7 7 13 14 10 8 12 16 16 12 11 11 9 8
14 30 26 16 16 16 21 27 25 24 23 21 18 16 16 13 12 14 13 13 15 17 18 17 19 22 18 18 19 20 22 13 12 33 44 39 37 25 6 3 8 6 9 11 6 9 16 11 6 7 7 7 6 6 9 9 9 14 16 10 7 8 11 11 8 11 12 5 6 7 8 16 16 9 6 8 11 10 8 8 8 11 13 10 7 7 6 7
7 27 32 16 9 11 11 13 15 17 19 20 19 17 17 18 19 22 21 20 21 18 14 15 19 17 11 9 12 18 25 27 22 13 5 9 11 4 4 9 3 1 8 10 9 11 14 14 10 7 7 8 9 7 6 7 7 13 18 11 9 10 7 6 7 12 13 9 9 8 13 18 11 6 7 9 10 8 9 10 7 7 9 8 6 6 8 9
5 18 30 22 17 20 20 22 22 19 16 13 14 19 21 22 21 17 16 18 18 14 10 13 12 9 11 8 6 14 21 19 12 5 6 9 6 8 12 6 0 6 11 13 16 11 7 9 9 8 6 8 14 8 2 6 6 10 14 9 10 11 8 7 5 10 13 9 9 10 13 14 9 8 7 9 12 9 8 8 6 5 6 7 7 8 10 9
7 9 23 31 26 19 22 32 36 34 31 23 17 21 23 22 20 13 12 17 21 20 16 17 18 18 21 17 12 12 11 8 6 8 10 6 3 9 10 4 5 9 8 13 18 11 6 9 9 6 3 7 15 10 3 6 9 12 11 10 15 10 5 8 5 6 12 10 8 10 12 11 9 8 7 9 11 7 6 7 6 6 7 9 9 8 9 8
9 7 12 20 14 5 9 16 19 21 22 17 10 10 12 13 13 10 8 12 16 17 16 17 22 23 20 16 11 7 6 6 8 9 5 3 6 9 7 5 8 11 11 13 13 9 7 8 11 9 6 7 10 9 6 6 11 14 10 9 15 11 4 6 6 8 11 10 7 8 9 10 11 9 8 9 7 7 8 6 6 9 10 9 8 7 6 6
8 6 6 9 8 7 9 7 6 9 9 9 8 7 7 4 3 6 8 10 12 10 10 13 17 17 12 10 10 8 5 4 6 5 1 4 8 7 7 7 9 11 12 10 6 3 2 5 10 12 9 7 7 8 9 8 9 9 9 9 8 10 11 7 7 10 11 10 8 6 6 8 10 8 7 7 7 10 10 7 9 12 10 7 6 6 6 6
7 6 7 7 7 8 7 6 7 9 7 5 6 5 3 1 3 9 11 10 8 5 7 11 12 11 9 11 13 8 3 4 7 6 6 9 8 4 3 8 12 10 9 11 9 9 9 7 8 9 6 4 4 4 6 10 9 3 7 12 9 9 11 8 9 11 10 10 9 7 5 6 7 6 6 7 9 13 12 10 11 10 7 6 7 7 6 7
8 6 5 5 7 7 6 6 5 1 1 3 5 3 2 5 8 9 9 8 6 5 8 9 8 10 10 10 11 9 7 7 5 5 9 10 9 8 5 9 14 9 9 12 9 10 12 9 6 8 11 8 4 3 6 8 5 1 6 11 10 9 11 14 16 13 10 10 10 8 5 4 6 7 8 11 11 12 13 11 9 6 6 7 7 6 6 6
9 6 5 7 7 4 3 4 3 1 5 9 5 1 3 7 7 6 7 7 8 8 8 10 9 8 8 7 8 9 7 6 7 8 11 10 10 13 12 10 5 -0 3 8 8 7 7 10 7 3 11 12 4 2 5 7 5 5 9 10 11 10 12 18 18 13 11 12 12 10 6 5 8 9 10 13 11 10 10 8 6 5 6 7 6 6 6 4
10 7 4 4 3 2 5 4 1 3 6 3 0 5 8 6 5 8 7 4 8 11 8 7 6 6 8 6 2 4 6 8 8 6 10 11 5 9 12 6 3 5 1 -2 3 4 4 12 10 4 8 8 3 1 2 8 12 11 10 8 11 13 11 12 13 11 12 13 13 11 7 7 9 11 11 10 8 6 7 6 5 5 6 6 6 4 3 3
9 7 2 0 2 6 5 0 -1 5 7 -1 0 11 11 5 5 7 10 10 10 10 3 -1 3 6 7 2 -1 5 10 9 1 0 11 12 2 4 5 -2 2 8 3 -1 -0 -1 3 8 8 8 5 2 4 3 5 9 7 9 11 6 9 17 12 8 12 12 11 16 17 12 9 10 10 11 11 8 7 7 8 7 5 5 6 5 6 4 3 4
6 4 1 1 8 10 5 1 2 6 7 0 1 9 7 4 5 4 8 8 4 3 1 0 3 1 -1 0 5 12 11 1 -5 2 11 10 6 3 5 6 1 -3 5 11 4 3 9 2 1 9 6 5 8 3 6 8 4 9 12 8 11 16 10 5 11 11 9 14 16 11 9 10 12 13 11 8 7 9 9 8 6 5 5 5 6 6 5 6
8 7 3 3 8 9 6 4 4 4 6 1 -1 6 7 3 3 3 -0 -3 -1 -1 -2 3 2 -4 -1 7 10 12 13 1 -3 13 13 6 8 4 5 10 -2 -5 8 7 -2 6 13 -0 -1 10 7 6 6 3 6 3 3 10 9 8 10 11 12 9 8 10 9 8 8 9 10 9 10 12 12 10 8 8 7 6 6 6 5 4 6 7 7 7
9 11 8 7 8 9 7 4 5 7 8 4 3 9 10 5 3 3 -3 -2 5 2 1 11 8 1 5 10 9 7 15 9 -2 10 9 1 11 7 -1 -1 -7 -1 7 4 6 10 7 2 5 9 6 4 4 9 13 4 4 8 4 7 9 7 13 11 9 13 10 6 2 3 9 8 6 7 6 7 6 6 7 6 6 6 6 6 6 6 6 6
7 10 9 8 7 8 5 1 4 11 11 6 7 7 5 6 5 2 -1 1 5 3 4 10 7 3 3 7 12 5 6 12 1 4 8 5 14 7 -4 1 -0 2 6 7 16 15 3 1 9 12 9 8 9 14 15 4 4 8 5 9 11 8 8 5 12 19 12 10 9 4 7 10 11 8 3 4 7 6 7 9 7 5 5 5 5 6 8 8
7 7 6 5 4 5 3 -0 2 9 10 5 1 -0 2 7 6 3 3 2 5 8 4 4 5 6 1 3 13 5 3 16 8 4 8 -1 1 4 4 9 5 8 15 5 7 18 11 1 4 10 9 9 10 13 14 5 2 6 6 9 10 7 8 9 12 15 11 13 14 9 8 11 14 11 6 7 9 8 8 9 8 6 6 6 6 7 9 9
7 6 6 6 5 6 5 4 6 9 9 5 -0 1 6 5 2 6 7 2 10 13 2 3 7 3 0 4 10 7 10 17 5 -0 4 -5 -0 13 13 7 -3 2 15 5 1 12 9 3 7 7 7 13 10 7 11 8 6 8 5 8 12 7 8 12 13 12 11 14 15 12 9 11 9 4 7 11 9 8 8 6 7 9 10 9 7 7 8 8
7 6 7 7 6 6 4 4 10 12 10 7 3 6 5 -4 3 16 7 -0 14 16 3 9 12 3 3 5 4 4 7 9 -0 -1 7 1 0 7 8 8 0 -4 7 8 6 7 -1 1 12 7 5 9 7 7 8 5 7 11 6 4 11 12 8 8 9 8 12 20 22 16 9 9 6 0 6 11 8 8 7 4 6 9 12 11 8 9 8 7
6 6 6 6 4 4 3 2 9 10 5 5 4 5 0 -6 13 22 2 -1 15 15 7 10 11 6 4 0 -1 4 8 12 8 4 8 1 -5 1 11 18 10 -0 7 9 7 9 5 7 10 6 8 9 7 10 10 8 8 9 7 2 5 12 8 2 2 3 10 19 18 11 8 7 6 6 8 7 5 6 6 6 5 8 11 11 10 12 10 8
5 4 4 5 4 4 4 5 10 7 4 5 2 2 -1 -2 16 21 5 7 13 9 9 8 3 5 7 2 2 7 9 12 11 6 7 1 -5 2 7 10 8 2 4 8 8 6 8 18 15 4 10 16 12 10 10 12 11 6 9 7 3 7 7 4 7 6 8 11 7 6 10 9 6 7 10 10 7 5 6 7 4 6 10 9 11 12 8 8
5 4 3 4 5 6 5 5 8 7 3 2 -1 3 0 -5 6 16 14 12 7 4 7 7 4 6 10 5 0 7 10 7 6 6 10 5 -3 -1 2 0 1 2 2 8 13 4 3 21 20 6 8 11 9 9 7 9 9 7 11 8 4 8 8 5 6 5 5 6 8 8 8 8 6 4 8 14 16 13 11 8 4 5 9 7 10 11 7 10
5 5 4 3 5 6 6 6 7 7 3 -3 -2 5 4 -2 2 13 17 12 8 7 4 9 11 5 9 8 -1 7 12 5 5 10 13 9 -3 -4 4 4 -0 3 9 9 8 2 1 15 16 5 5 9 11 10 4 8 11 10 14 13 9 11 10 7 6 6 6 4 7 9 5 6 8 6 6 10 16 15 10 11 9 6 7 7 7 9 7 10
6 5 4 4 5 5 5 6 6 8 6 -1 -0 5 4 2 3 11 21 20 18 11 -1 8 14 3 5 9 3 10 16 8 7 13 12 4 2 -1 1 8 7 5 11 9 7 6 4 11 13 5 5 12 16 10 3 6 6 4 10 8 4 5 7 10 9 7 9 8 7 8 8 10 11 10 7 6 10 9 5 13 16 5 5 10 8 8 9 9
7 5 5 5 6 5 5 6 6 7 8 3 1 2 2 3 3 9 20 24 25 18 3 7 16 11 9 10 6 6 14 12 5 12 11 -0 8 11 1 6 6 5 17 16 9 8 3 8 12 6 9 16 15 10 6 6 6 8 8 2 3 5 6 14 14 7 7 9 9 7 5 6 6 5 5 3 5 6 4 12 16 6 4 10 10 8 8 7
8 6 6 5 5 5 4 7 6 6 9 5 -1 1 4 4 4 7 8 8 12 15 11 7 8 10 9 9 6 -1 8 16 6 10 15 7 14 12 1 9 3 2 25 20 2 4 6 9 11 4 9 14 9 8 8 6 7 11 9 6 10 9 6 10 11 7 4 1 3 6 5 6 4 4 7 3 3 8 6 8 14 11 5 6 10 9 7 7
9 7 7 6 4 4 5 7 6 5 8 6 0 0 3 4 5 4 4 6 6 5 10 12 10 14 14 10 8 5 10 16 9 11 14 11 17 6 -2 14 6 -3 16 11 -4 6 9 5 5 5 11 14 8 9 13 12 7 7 9 9 10 6 3 6 7 11 11 2 2 7 10 10 6 5 6 1 2 8 5 6 12 11 5 6 11 13 10 8
10 7 7 7 4 2 5 7 7 6 7 6 2 0 1 4 4 3 6 16 18 10 10 15 15 18 17 11 11 17 20 14 9 11 6 6 19 10 -0 11 9 2 8 2 -3 6 7 1 1 5 12 13 9 8 11 11 7 6 9 9 9 6 4 7 9 11 10 7 9 11 12 11 7 7 8 4 5 6 3 4 7 9 9 7 9 12 12 11
10 8 7 7 4 2 4 7 7 7 8 7 5 3 3 3 3 4 6 9 12 11 8 11 14 12 9 7 6 16 24 16 7 8 7 10 18 13 2 -0 2 6 4 -2 4 7 4 6 8 10 9 6 8 9 9 10 6 5 7 8 11 8 4 7 9 7 6 7 10 9 11 13 10 9 11 10 8 6 6 8 7 12 14 9 9 10 11 13
10 9 7 7 5 1 3 8 7 6 9 9 5 3 3 4 2 4 8 4 3 10 13 9 10 12 14 14 9 8 12 11 10 13 15 16 11 7 4 -4 -2 7 0 -0 12 9 2 4 9 13 8 1 7 9 7 9 7 7 12 12 10 7 6 7 5 4 5 5 7 7 9 8 2 1 5 6 4 4 9 10 8 11 14 11 12 14 13 14
9 10 7 7 7 3 3 7 8 7 8 7 4 3 4 8 6 1 4 6 3 13 23 15 7 12 18 19 15 7 5 7 8 8 12 14 7 4 5 1 2 7 0 4 13 8 3 2 3 8 6 5 13 10 5 8 6 6 13 14 10 8 8 6 3 5 6 6 7 9 8 4 -1 2 7 5 4 6 8 7 5 10 15 14 13 13 13 12
8 9 8 6 6 4 4 7 9 7 5 3 3 4 5 9 12 6 4 6 3 7 18 15 10 16 18 16 15 9 8 12 8 3 12 18 10 5 6 4 2 0 -2 3 4 0 1 3 2 3 4 11 17 10 7 13 6 1 6 9 8 7 8 9 10 11 9 7 7 7 7 5 4 6 7 5 7 9 8 6 6 10 13 11 10 12 14 12
8 8 8 6 5 4 4 7 8 7 5 4 5 5 3 3 10 13 11 7 4 8 14 8 5 14 14 11 15 12 9 14 7 3 21 26 7 -0 7 7 0 -4 -3 2 1 -0 4 6 6 3 3 12 14 5 7 13 4 -4 -0 4 4 3 6 10 9 7 8 9 9 9 9 8 8 9 9 8 7 6 8 9 9 11 13 12 13 16 18 17
12 9 8 7 5 4 4 6 9 8 5 5 7 6 -1 -5 0 10 11 6 3 8 15 11 4 6 5 8 19 16 10 14 5 -4 15 28 12 2 8 12 6 1 1 4 6 7 7 8 10 7 7 12 11 4 7 9 4 2 5 8 9 6 5 9 8 6 8 10 8 7 7 8 8 7 10 10 5 4 10 11 7 10 13 14 16 17 19 20
15 13 11 9 7 6 5 6 12 14 7 3 7 9 4 -3 -3 4 7 6 5 6 10 12 8 5 1 5 18 18 11 11 3 -5 8 23 21 14 9 6 5 6 8 8 8 8 5 6 8 7 7 8 6 5 6 5 4 7 8 8 7 4 2 7 9 9 11 13 12 10 9 8 7 8 9 9 8 10 12 10 9 12 13 13 15 18 20 20
14 15 12 9 8 7 5 3 8 14 10 3 2 6 7 5 3 5 6 6 6 6 6 9 12 12 7 5 11 17 17 10 1 1 6 5 8 13 9 2 2 8 12 9 8 8 8 13 17 15 15 12 8 10 12 9 9 9 6 6 9 9 6 5 7 9 8 8 10 11 11 9 8 9 9 8 11 15 12 8 11 14 13 14 16 18 22 21
12 15 15 11 6 6 5 3 4 9 11 7 4 3 4 5 4 3 6 7 5 7 8 8 10 13 12 9 6 8 16 16 10 13 10 -1 -1 5 8 10 9 9 10 7 8 12 9 10 13 15 20 19 11 10 12 10 11 10 5 8 13 12 5 2 6 11 9 7 7 9 10 10 9 10 13 14 12 12 10 9 11 13 14 16 16 17 20 21
10 12 16 17 11 6 5 5 3 5 8 8 7 7 6 5 4 2 6 9 5 4 7 6 7 9 8 9 9 6 9 13 12 11 9 6 4 3 10 17 11 9 11 4 3 9 9 6 6 8 14 16 12 13 13 10 10 11 9 9 11 9 6 6 9 11 9 7 7 8 9 10 12 14 17 17 11 9 10 9 11 15 17 18 17 15 17 18
11 9 12 18 19 14 9 6 5 4 6 6 5 5 4 4 5 4 7 12 7 3 6 6 8 10 7 7 11 10 6 5 5 5 6 8 8 5 10 11 3 7 13 3 -4 3 7 9 11 10 10 13 14 15 14 12 13 12 10 10 9 8 8 9 12 13 9 4 5 10 10 11 13 14 15 14 12 11 10 8 10 14 16 17 16 15 16 17
Height
5695 5692 5690 5688 5687 5686 5686 5685 5686 5686 5687 5688 5690 5692 5694 5697 5701 5704 5708 5711 5715 5719 5723 5727 5732 5736 5741 5746 5752 5758 5766 5773 5779 5785 5790 5793 5796 5800 5804 5808 5812 5816 5819 5820 5822 5824 5825 5825 5826 5828 5829 5830 5830 5831 5831 5832 5832 5832 5832 5832 5832 5832 5832 5833 5833 5833 5833 5832 5831 5830 5829 5828 5827 5827 5826 5826 5825 5824 5823 5821 5820 5818 5817 5816 5814 5814 5813 5812
5694 5691 5688 5687 5685 5684 5684 5683 5683 5683 5684 5685 5687 5689 5691 5695 5698 5702 5706 5709 5713 5716 5720 5724 5729 5734 5738 5744 5750 5757 5764 5770 5777 5782 5786 5790 5794 5798 5802 5807 5811 5814 5816 5818 5821 5822 5823 5824 5825 5826 5827 5828 5828 5829 5829 5830 5830 5830 5830 5830 5830 5831 5832 5832 5832 5831 5830 5829 5828 5827 5827 5826 5826 5825 5825 5824 5823 5821 5820 5819 5817 5816 5815 5813 5812 5811 5811 5810
5693 5690 5687 5685 5684 5682 5682 5681 5680 5680 5681 5682 5684 5686 5689 5692 5696 5699 5704 5708 5711 5715 5718 5722 5727 5731 5737 5743 5749 5755 5761 5768 5775 5779 5783 5789 5794 5797 5800 5805 5809 5811 5814 5817 5819 5820 5821 5822 5824 5825 5826 5826 5827 5827 5827 5827 5828 5827 5828 5828 5828 5830 5830 5831 5830 5828 5827 5826 5826 5825 5825 5825 5824 5823 5823 5822 5820 5819 5818 5816 5815 5813 5812 5811 5810 5809 5809 5808
5693 5689 5687 5684 5683 5681 5680 5679 5678 5678 5678 5680 5681 5684 5686 5690 5694 5698 5702 5706 5709 5713 5717 5721 5726 5730 5736 5742 5747 5753 5759 5766 5772 5776 5782 5788 5792 5795 5799 5803 5807 5809 5813 5816 5817 5818 5819 5821 5822 5824 5825 5825 5825 5825 5825 5826 5826 5825 5826 5826 5827 5828 5829 5829 5828 5826 5825 5824 5823 5823 5823 5823 5822 5821 5821 5820 5819 5818 5816 5815 5813 5811 5810 5809 5807 5807 5806 5806
5693 5689 5687 5684 5682 5680 5679 5678 5677 5676 5677 5678 5679 5682 5685 5688 5692 5696 5700 5704 5708 5712 5716 5721 5725 5730 5736 5741 5746 5751 5757 5764 5770 5775 5781 5786 5790 5794 5797 5801 5805 5808 5812 5814 5815 5816 5818 5820 5821 5822 5822 5823 5823 5823 5823 5823 5824 5824 5824 5825 5826 5827 5827 5827 5826 5824 5823 5822 5821 5821 5821 5820 5820 5819 5819 5818 5817 5816 5815 5813 5811 5810 5809 5807 5805 5805 5805 5805
5693 5690 5687 5684 5681 5679 5678 5676 5676 5675 5675 5676 5678 5680 5683 5687 5691 5695 5699 5704 5708 5712 5716 5720 5725 5730 5734 5739 5745 5751 5757 5764 5769 5774 5780 5783 5788 5792 5796 5800 5804 5807 5811 5813 5814 5815 5816 5818 5819 5819 5819 5820 5821 5822 5821 5821 5823 5823 5823 5824 5824 5825 5825 5825 5824 5823 5822 5821 5820 5819 5819 5818 5818 5817 5817 5816 5815 5814 5813 5811 5810 5809 5807 5805 5804 5804 5803 5803
5693 5690 5687 5684 5681 5679 5677 5676 5675 5674 5674 5676 5677 5680 5683 5687 5691 5695 5699 5704 5708 5711 5716 5720 5725 5729 5734 5739 5745 5750 5757 5763 5768 5772 5777 5781 5787 5792 5795 5799 5803 5807 5810 5811 5812 5813 5814 5816 5817 5817 5817 5818 5819 5820 5820 5820 5821 5822 5822 5822 5822 5823 5823 5823 5822 5821 5820 5819 5818 5818 5818 5817 5816 5815 5815 5814 5813 5812 5811 5810 5809 5808 5806 5804 5803 5803 5803 5803
5693 5690 5687 5684 5682 5679 5677 5676 5675 5674 5674 5675 5678 5680 5683 5687 5691 5695 5700 5704 5708 5712 5716 5721 5725 5729 5733 5738 5744 5750 5756 5761 5766 5771 5776 5780 5785 5791 5794 5798 5802 5806 5808 5809 5810 5811 5813 5814 5815 5815 5816 5816 5817 5819 5819 5820 5820 5820 5820 5820 5821 5821 5821 5820 5820 5820 5819 5818 5817 5817 5816 5815 5815 5814 5813 5812 5811 5811 5809 5809 5808 5807 5805 5804 5803 5803 5802 5802
5694 5691 5688 5685 5682 5680 5678 5676 5675 5675 5675 5676 5679 5682 5685 5688 5692 5697 5701 5705 5709 5713 5717 5721 5725 5729 5734 5738 5743 5749 5755 5760 5765 5770 5774 5778 5783 5789 5793 5797 5801 5804 5805 5807 5808 5810 5811 5812 5813 5814 5815 5815 5817 5818 5818 5818 5818 5818 5818 5819 5819 5819 5819 5819 5819 5819 5818 5817 5816 5815 5815 5814 5814 5813 5812 5811 5810 5809 5808 5808 5807 5806 5805 5804 5804 5803 5802 5802
5696 5692 5689 5686 5683 5681 5679 5677 5676 5676 5676 5678 5680 5684 5687 5690 5694 5699 5703 5707 5711 5715 5719 5723 5727 5731 5734 5739 5743 5748 5753 5758 5764 5769 5772 5777 5782 5786 5791 5795 5799 5801 5804 5805 5806 5808 5809 5811 5812 5813 5814 5816 5816 5816 5815 5816 5816 5816 5817 5817 5818 5818 5818 5818 5818 5817 5816 5816 5815 5814 5813 5813 5813 5812 5811 5811 5810 5808 5808 5807 5807 5806 5805 5804 5804 5803 5803 5803
5698 5694 5691 5688 5685 5683 5681 5679 5678 5678 5678 5680 5683 5686 5690 5693 5697 5701 5705 5709 5713 5717 5721 5725 5728 5732 5735 5739 5743 5748 5753 5758 5763 5768 5772 5776 5781 5785 5789 5793 5796 5800 5802 5804 5805 5806 5808 5810 5811 5812 5813 5815 5815 5814 5815 5814 5815 5816 5816 5817 5817 5817 5817 5817 5816 5816 5815 5814 5814 5813 5812 5812 5812 5811 5811 5810 5809 5808 5807 5807 5806 5806 5805 5805 5804 5803 5803 5803
5702 5697 5693 5691 5688 5686 5684 5682 5681 5681 5681 5683 5686 5690 5693 5696 5699 5703 5707 5711 5716 5719 5723 5726 5730 5733 5736 5740 5745 5750 5755 5759 5763 5768 5771 5775 5779 5783 5786 5791 5796 5799 5801 5803 5805 5806 5808 5809 5811 5812 5812 5813 5814 5813 5814 5813 5813 5815 5816 5816 5816 5816 5816 5815 5815 5814 5814 5814 5813 5812 5812 5811 5811 5811 5810 5809 5808 5808 5807 5806 5806 5805 5805 5805 5804 5804 5803 5804
5705 5701 5697 5695 5692 5689 5687 5686 5685 5685 5685 5687 5690 5693 5696 5700 5703 5706 5710 5714 5718 5721 5725 5728 5731 5735 5738 5742 5746 5751 5756 5761 5765 5768 5771 5774 5778 5783 5786 5791 5795 5798 5800 5802 5804 5806 5808 5809 5810 5810 5810 5811 5812 5812 5813 5813 5813 5815 5815 5815 5814 5814 5814 5814 5814 5813 5813 5813 5812 5811 5811 5810 5811 5810 5810 5809 5808 5808 5807 5806 5806 5805 5805 5805 5804 5804 5804 5804
5710 5706 5702 5699 5697 5694 5692 5691 5690 5690 5690 5692 5694 5697 5700 5703 5706 5710 5713 5717 5720 5724 5727 5731 5734 5737 5741 5744 5748 5753 5758 5763 5767 5768 5770 5774 5779 5783 5787 5791 5795 5798 5801 5802 5804 5806 5807 5807 5807 5808 5809 5809 5810 5811 5812 5813 5813 5813 5813 5813 5813 5813 5813 5813 5813 5812 5813 5812 5811 5811 5810 5810 5810 5810 5809 5809 5808 5808 5807 5807 5806 5806 5805 5805 5805 5804 5804 5804
5715 5710 5707 5705 5702 5700 5698 5696 5695 5695 5696 5698 5700 5702 5705 5707 5710 5714 5717 5720 5723 5726 5730 5734 5737 5740 5744 5747 5751 5755 5759 5765 5770 5770 5770 5775 5780 5783 5787 5791 5796 5798 5800 5801 5803 5805 5805 5806 5806 5807 5808 5809 5810 5811 5812 5812 5812 5812 5812 5812 5812 5812 5812 5812 5812 5812 5812 5811 5811 5810 5809 5809 5810 5810 5809 5808 5808 5808 5808 5807 5807 5806 5806 5806 5805 5805 5805 5805
5720 5716 5712 5710 5708 5705 5703 5702 5701 5701 5702 5703 5705 5708 5710 5713 5715 5718 5721 5724 5727 5730 5733 5736 5740 5742 5746 5750 5754 5758 5762 5765 5770 5772 5773 5776 5781 5785 5788 5792 5795 5796 5798 5800 5802 5803 5804 5805 5805 5806 5808 5809 5810 5810 5810 5810 5810 5810 5810 5811 5811 5811 5811 5811 5811 5811 5811 5810 5810 5809 5809 5809 5809 5809 5809 5808 5808 5808 5808 5808 5807 5807 5807 5807 5806 5806 5806 5806
5725 5721 5718 5716 5714 5711 5709 5708 5707 5707 5708 5709 5710 5713 5715 5718 5720 5723 5726 5728 5731 5734 5736 5739 5742 5745 5749 5753 5756 5761 5764 5767 5772 5775 5776 5778 5782 5786 5790 5792 5793 5795 5798 5800 5801 5803 5803 5804 5805 5806 5808 5809 5809 5809 5809 5809 5809 5809 5809 5810 5810 5811 5810 5810 5810 5810 5810 5810 5809 5809 5809 5809 5809 5809 5808 5808 5808 5808 5808 5808 5808 5807 5807 5807 5807 5807 5807 5807
5731 5727 5724 5723 5721 5718 5716 5714 5713 5713 5713 5715 5716 5718 5721 5723 5725 5728 5730 5732 5735 5738 5740 5743 5745 5749 5753 5757 5760 5763 5767 5771 5774 5777 5779 5780 5783 5786 5788 5790 5793 5795 5798 5800 5801 5802 5803 5804 5805 5806 5808 5808 5808 5808 5808 5808 5809 5808 5809 5809 5809 5809 5810 5809 5809 5809 5809 5809 5809 5809 5808 5809 5809 5808 5808 5808 5808 5808 5808 5808 5808 5808 5807 5807 5807 5807 5807 5807
5736 5733 5731 5729 5727 5726 5723 5722 5720 5718 5718 5720 5722 5724 5725 5727 5730 5732 5734 5737 5740 5742 5745 5748 5750 5753 5756 5759 5762 5765 5769 5773 5776 5779 5781 5783 5784 5787 5789 5790 5792 5795 5797 5799 5801 5802 5803 5804 5806 5807 5807 5808 5808 5808 5808 5808 5808 5808 5808 5808 5808 5808 5808 5809 5809 5808 5809 5809 5808 5808 5808 5808 5808 5808 5808 5808 5808 5808 5808 5807 5808 5808 5807 5807 5807 5807 5807 5807
5740 5739 5737 5735 5733 5732 5730 5729 5727 5726 5725 5725 5727 5728 5730 5733 5735 5737 5739 5741 5743 5746 5749 5751 5754 5757 5759 5762 5766 5768 5771 5775 5779 5781 5782 5785 5787 5788 5790 5791 5793 5795 5797 5799 5800 5802 5803 5804 5805 5807 5807 5808 5808 5807 5807 5807 5808 5807 5807 5807 5807 5807 5807 5808 5808 5808 5808 5808 5808 5808 5808 5808 5808 5808 5808 5807 5808 5808 5808 5807 5807 5807 5807 5807 5807 5807 5807 5807
5744 5743 5742 5741 5739 5737 5735 5734 5734 5734 5734 5733 5733 5734 5736 5738 5740 5742 5744 5745 5747 5749 5752 5755 5757 5760 5763 5766 5769 5771 5774 5777 5780 5782 5784 5786 5788 5788 5790 5792 5794 5796 5797 5799 5800 5802 5803 5803 5804 5806 5806 5807 5807 5807 5807 5807 5807 5807 5806 5806 5807 5807 5807 5807 5807 5808 5808 5808 5808 5808 5808 5808 5808 5808 5808 5807 5807 5807 5807 5807 5807 5807 5808 5808 5808 5808 5808 5808
5747 5747 5746 5745 5744 5743 5741 5740 5739 5739 5740 5741 5741 5742 5743 5744 5745 5746 5748 5750 5752 5753 5756 5759 5761 5764 5767 5770 5771 5774 5776 5779 5780 5783 5785 5786 5787 5789 5790 5793 5795 5796 5798 5799 5800 5801 5802 5803 5804 5805 5806 5807 5807 5806 5806 5806 5806 5806 5806 5806 5806 5807 5807 5807 5807 5807 5807 5807 5807 5807 5807 5808 5808 5807 5808 5808 5807 5807 5807 5807 5807 5808 5808 5808 5808 5808 5808 5808
5751 5750 5749 5749 5748 5747 5746 5745 5744 5744 5744 5745 5746 5746 5747 5748 5749 5750 5752 5755 5757 5758 5760 5762 5764 5767 5771 5773 5774 5776 5777 5780 5782 5783 5785 5786 5787 5790 5791 5793 5796 5797 5799 5800 5801 5801 5802 5803 5803 5804 5805 5806 5806 5806 5806 5805 5805 5806 5806 5806 5806 5807 5807 5807 5807 5806 5806 5806 5807 5807 5807 5807 5807 5807 5807 5807 5807 5807 5807 5807 5807 5808 5808 5808 5808 5808 5808 5808
5753 5753 5752 5752 5752 5751 5751 5750 5750 5749 5749 5748 5749 5749 5750 5752 5753 5754 5756 5758 5761 5763 5764 5766 5768 5769 5772 5775 5776 5777 5778 5781 5783 5784 5786 5787 5788 5790 5791 5793 5796 5797 5798 5800 5801 5802 5802 5803 5802 5803 5804 5805 5805 5805 5805 5805 5805 5806 5806 5806 5806 5806 5806 5807 5806 5806 5805 5806 5806 5806 5807 5807 5807 5807 5807 5807 5807 5807 5807 5808 5807 5808 5808 5808 5808 5808 5808 5808
5755 5755 5755 5755 5755 5755 5755 5755 5755 5754 5753 5753 5753 5753 5753 5755 5756 5757 5758 5760 5763 5765 5767 5768 5770 5771 5773 5775 5776 5778 5781 5782 5784 5785 5786 5788 5790 5791 5792 5793 5795 5797 5798 5799 5801 5802 5802 5802 5802 5801 5802 5803 5804 5805 5805 5805 5806 5806 5806 5806 5806 5806 5806 5806 5805 5805 5805 5805 5805 5805 5806 5806 5806 5806 5807 5807 5807 5807 5807 5807 5807 5807 5808 5808 5808 5808 5807 5807
5757 5757 5757 5757 5757 5757 5757 5757 5757 5757 5756 5756 5757 5758 5757 5758 5759 5760 5761 5762 5764 5767 5768 5770 5772 5773 5774 5776 5777 5780 5783 5783 5785 5786 5787 5788 5791 5793 5794 5794 5795 5797 5798 5799 5800 5801 5802 5802 5801 5801 5801 5802 5803 5804 5804 5805 5805 5805 5805 5806 5806 5805 5806 5806 5805 5805 5805 5805 5805 5805 5805 5806 5806 5806 5806 5806 5807 5807 5807 5807 5807 5807 5807 5808 5808 5808 5807 5807
5759 5759 5759 5759 5759 5760 5759 5759 5758 5759 5759 5759 5760 5761 5761 5761 5762 5763 5763 5763 5766 5767 5769 5771 5774 5775 5775 5778 5780 5782 5784 5785 5786 5787 5787 5788 5791 5793 5794 5794 5795 5797 5798 5799 5800 5800 5801 5801 5801 5801 5802 5802 5803 5803 5803 5804 5804 5804 5805 5806 5805 5805 5805 5806 5805 5805 5805 5805 5805 5805 5805 5806 5806 5806 5806 5806 5807 5807 5807 5807 5806 5807 5807 5807 5807 5807 5807 5806
5761 5761 5760 5760 5761 5762 5762 5762 5761 5761 5762 5762 5763 5764 5764 5764 5764 5765 5765 5766 5768 5769 5769 5772 5775 5777 5777 5779 5781 5782 5784 5786 5787 5788 5788 5789 5791 5792 5794 5795 5796 5797 5798 5799 5800 5800 5800 5801 5801 5802 5803 5803 5803 5803 5804 5804 5804 5804 5805 5805 5805 5805 5805 5805 5805 5805 5806 5805 5805 5805 5805 5806 5806 5806 5806 5806 5806 5806 5806 5806 5806 5806 5806 5806 5806 5806 5806 5805
5762 5762 5762 5762 5763 5763 5764 5764 5765 5765 5765 5765 5766 5767 5767 5767 5768 5768 5769 5769 5770 5771 5770 5771 5774 5777 5778 5779 5781 5782 5784 5786 5788 5789 5790 5790 5792 5792 5794 5796 5796 5797 5798 5799 5800 5800 5800 5800 5801 5802 5803 5803 5803 5803 5804 5804 5804 5804 5804 5804 5804 5804 5804 5805 5806 5805 5805 5806 5805 5805 5806 5806 5806 5806 5806 5806 5806 5806 5806 5806 5806 5805 5805 5805 5805 5805 5805 5804
5764 5764 5764 5764 5764 5765 5765 5766 5766 5767 5767 5768 5768 5769 5769 5769 5770 5770 5771 5772 5772 5772 5771 5772 5773 5776 5778 5779 5781 5783 5784 5786 5788 5790 5791 5792 5793 5793 5794 5796 5796 5797 5798 5799 5799 5800 5800 5800 5801 5802 5802 5803 5803 5804 5804 5804 5804 5803 5803 5803 5803 5803 5804 5805 5805 5805 5805 5805 5805 5805 5805 5805 5805 5805 5805 5805 5805 5805 5806 5806 5806 5805 5804 5804 5804 5803 5804 5803
5765 5765 5765 5765 5765 5766 5766 5767 5767 5768 5769 5770 5770 5771 5771 5771 5771 5772 5773 5773 5773 5773 5773 5774 5775 5776 5778 5779 5781 5783 5784 5786 5788 5790 5791 5792 5793 5794 5794 5796 5797 5798 5798 5799 5800 5800 5800 5801 5801 5801 5802 5802 5803 5803 5804 5804 5803 5803 5802 5802 5802 5803 5803 5804 5804 5804 5804 5804 5805 5805 5805 5805 5805 5805 5804 5804 5804 5805 5805 5805 5805 5805 5804 5804 5803 5803 5803 5802
5765 5766 5766 5766 5767 5767 5767 5768 5768 5769 5770 5771 5772 5772 5773 5773 5773 5773 5774 5774 5774 5775 5775 5775 5777 5778 5779 5780 5781 5782 5784 5786 5787 5788 5790 5791 5793 5794 5795 5796 5797 5798 5799 5799 5800 5800 5800 5800 5801 5801 5801 5801 5802 5802 5802 5803 5803 5802 5802 5801 5801 5802 5802 5803 5803 5802 5803 5803 5803 5804 5804 5804 5804 5804 5804 5803 5804 5804 5805 5805 5804 5804 5804 5803 5803 5802 5802 5801
5766 5766 5766 5767 5767 5768 5768 5769 5770 5770 5771 5772 5772 5773 5773 5774 5774 5774 5774 5775 5775 5776 5776 5777 5778 5779 5780 5781 5782 5782 5784 5786 5786 5788 5789 5790 5791 5793 5794 5795 5797 5798 5799 5799 5800 5800 5800 5800 5800 5800 5800 5801 5801 5801 5801 5801 5801 5801 5801 5801 5801 5801 5802 5802 5802 5802 5802 5802 5803 5803 5803 5803 5803 5803 5803 5803 5803 5803 5804 5804 5803 5803 5803 5803 5802 5802 5801 5801
5767 5766 5767 5767 5768 5769 5769 5770 5771 5771 5772 5772 5773 5774 5774 5775 5775 5775 5775 5775 5776 5777 5778 5779 5780 5780 5781 5781 5782 5783 5784 5786 5786 5787 5789 5790 5791 5792 5794 5795 5796 5797 5798 5799 5799 5799 5799 5799 5799 5800 5800 5801 5801 5802 5802 5801 5801 5801 5801 5801 5801 5802 5802 5802 5802 5802 5802 5802 5802 5802 5803 5803 5802 5802 5803 5803 5803 5802 5803 5803 5803 5802 5802 5802 5802 5802 5801 5800
5767 5767 5767 5768 5769 5769 5770 5771 5771 5772 5772 5773 5774 5774 5775 5775 5775 5775 5775 5776 5776 5777 5778 5779 5780 5781 5781 5781 5782 5783 5785 5786 5787 5787 5789 5790 5791 5792 5793 5794 5795 5797 5797 5798 5798 5799 5799 5798 5799 5799 5800 5800 5801 5802 5802 5802 5801 5801 5801 5801 5801 5802 5802 5802 5802 5802 5802 5802 5801 5801 5801 5801 5802 5802 5802 5803 5803 5803 5803 5803 5803 5802 5801 5802 5802 5801 5801 5800
5767 5767 5767 5768 5769 5769 5770 5771 5771 5772 5772 5773 5774 5774 5774 5775 5775 5775 5775 5775 5776 5777 5778 5779 5780 5781 5781 5781 5781 5782 5784 5786 5787 5787 5788 5790 5791 5792 5792 5793 5795 5796 5797 5797 5798 5798 5798 5798 5798 5799 5799 5800 5801 5801 5801 5801 5801 5801 5801 5801 5801 5801 5801 5801 5801 5802 5802 5801 5801 5800 5800 5800 5801 5801 5801 5802 5803 5803 5804 5804 5803 5802 5800 5801 5801 5801 5800 5799
5766 5767 5767 5768 5768 5769 5769 5770 5771 5772 5772 5773 5773 5773 5774 5774 5774 5774 5774 5774 5776 5777 5778 5778 5779 5779 5779 5780 5780 5781 5783 5785 5786 5787 5788 5789 5791 5792 5792 5793 5794 5795 5796 5796 5797 5798 5798 5797 5797 5798 5799 5800 5800 5800 5801 5801 5801 5801 5801 5801 5801 5801 5801 5801 5801 5801 5801 5800 5800 5800 5800 5800 5800 5800 5800 5800 5801 5802 5803 5803 5803 5802 5801 5800 5800 5800 5799 5798
5766 5766 5767 5768 5768 5769 5769 5770 5770 5771 5772 5773 5773 5773 5773 5773 5773 5774 5775 5774 5775 5776 5777 5778 5778 5779 5778 5779 5780 5781 5782 5784 5786 5787 5787 5788 5790 5792 5792 5792 5793 5794 5794 5795 5795 5797 5797 5797 5797 5798 5798 5799 5799 5799 5800 5800 5800 5801 5801 5801 5800 5800 5800 5800 5801 5800 5800 5800 5799 5799 5799 5799 5799 5800 5800 5800 5800 5800 5801 5802 5802 5801 5801 5800 5800 5800 5799 5798
5765 5765 5766 5768 5767 5768 5769 5770 5770 5771 5771 5772 5772 5771 5772 5772 5772 5774 5775 5774 5775 5776 5776 5777 5778 5778 5778 5778 5779 5780 5782 5783 5784 5786 5787 5787 5789 5790 5791 5791 5792 5793 5793 5793 5794 5795 5796 5796 5797 5797 5797 5797 5798 5798 5798 5799 5800 5800 5800 5800 5800 5800 5799 5800 5800 5800 5800 5799 5799 5799 5799 5798 5798 5798 5799 5799 5799 5799 5800 5800 5800 5800 5800 5799 5799 5799 5798 5797
5764 5764 5765 5767 5766 5767 5768 5769 5770 5770 5771 5771 5771 5771 5771 5771 5771 5773 5774 5774 5774 5775 5776 5776 5777 5777 5777 5777 5778 5779 5781 5782 5783 5785 5787 5787 5788 5789 5790 5790 5790 5791 5792 5792 5793 5794 5795 5796 5796 5797 5797 5797 5797 5798 5798 5798 5799 5799 5799 5799 5799 5799 5798 5798 5799 5799 5799 5799 5798 5798 5798 5798 5797 5797 5797 5798 5798 5798 5798 5798 5799 5799 5799 5798 5798 5798 5798 5797
5763 5763 5764 5766 5765 5766 5767 5768 5769 5770 5770 5771 5771 5771 5770 5770 5771 5773 5774 5773 5774 5775 5775 5775 5776 5776 5776 5775 5776 5778 5779 5781 5782 5784 5786 5787 5788 5788 5788 5788 5788 5789 5790 5791 5792 5793 5794 5795 5795 5796 5796 5796 5796 5797 5797 5797 5798 5798 5798 5799 5799 5798 5798 5798 5797 5798 5798 5798 5798 5797 5797 5796 5796 5795 5796 5796 5796 5796 5797 5797 5797 5797 5797 5796 5796 5796 5797 5796
5762 5762 5764 5764 5764 5765 5766 5767 5768 5769 5770 5771 5771 5770 5769 5770 5771 5773 5773 5773 5773 5774 5775 5775 5775 5776 5774 5774 5775 5777 5778 5780 5782 5783 5785 5787 5787 5787 5787 5786 5787 5787 5788 5789 5791 5792 5793 5793 5794 5795 5795 5795 5795 5795 5796 5796 5797 5798 5798 5798 5798 5797 5797 5796 5796 5796 5796 5796 5796 5796 5796 5795 5794 5794 5794 5794 5794 5794 5794 5795 5795 5795 5795 5795 5795 5795 5795 5794
5761 5762 5762 5762 5763 5765 5766 5766 5767 5768 5769 5769 5769 5769 5769 5770 5771 5772 5772 5773 5773 5773 5774 5774 5775 5775 5773 5773 5774 5776 5778 5780 5781 5782 5784 5786 5786 5786 5786 5785 5786 5787 5787 5788 5790 5791 5791 5792 5793 5793 5794 5794 5795 5794 5794 5794 5795 5796 5797 5797 5796 5796 5796 5795 5795 5795 5794 5794 5794 5794 5794 5793 5792 5792 5792 5793 5792 5792 5792 5792 5792 5793 5794 5794 5793 5793 5793 5792
5760 5760 5761 5761 5762 5764 5765 5765 5766 5767 5768 5768 5767 5767 5769 5770 5771 5771 5772 5772 5773 5773 5773 5774 5774 5774 5773 5773 5774 5775 5777 5779 5780 5782 5784 5785 5784 5784 5785 5785 5785 5786 5787 5788 5790 5790 5791 5791 5791 5792 5792 5793 5794 5793 5793 5793 5794 5795 5795 5795 5795 5795 5794 5794 5794 5793 5793 5793 5793 5793 5793 5792 5791 5791 5791 5791 5791 5790 5789 5789 5789 5791 5792 5791 5791 5791 5791 5791
5759 5759 5759 5759 5761 5762 5762 5763 5765 5766 5766 5766 5766 5767 5769 5769 5770 5771 5771 5771 5772 5772 5772 5773 5773 5773 5774 5774 5774 5775 5776 5778 5779 5780 5782 5783 5784 5784 5785 5785 5785 5786 5786 5787 5788 5789 5790 5790 5790 5791 5791 5791 5792 5792 5792 5792 5793 5793 5793 5793 5793 5793 5793 5793 5793 5792 5792 5791 5791 5791 5791 5790 5790 5789 5789 5790 5789 5789 5788 5787 5787 5789 5789 5789 5789 5789 5789 5789
5757 5757 5756 5758 5760 5760 5761 5762 5763 5763 5764 5765 5765 5766 5768 5769 5769 5770 5770 5770 5771 5772 5772 5772 5772 5773 5773 5773 5773 5774 5775 5776 5778 5779 5780 5781 5783 5784 5784 5785 5785 5786 5786 5786 5787 5788 5788 5788 5789 5790 5790 5790 5790 5790 5791 5791 5791 5791 5791 5791 5791 5791 5791 5791 5791 5791 5790 5790 5790 5790 5789 5789 5788 5788 5788 5788 5787 5787 5787 5786 5786 5786 5786 5787 5787 5787 5787 5787
5754 5755 5755 5757 5759 5759 5760 5761 5761 5762 5764 5765 5764 5765 5766 5767 5768 5769 5769 5769 5770 5771 5772 5771 5771 5771 5772 5772 5773 5773 5774 5775 5777 5778 5779 5780 5782 5783 5784 5785 5786 5785 5785 5785 5786 5786 5787 5787 5788 5788 5788 5789 5789 5789 5789 5789 5789 5789 5789 5789 5789 5789 5789 5790 5790 5790 5789 5789 5789 5788 5788 5788 5787 5786 5786 5786 5786 5786 5786 5785 5784 5784 5784 5785 5785 5785 5785 5785
5752 5753 5754 5756 5757 5758 5759 5760 5761 5762 5764 5764 5764 5764 5764 5765 5766 5767 5768 5768 5769 5770 5771 5771 5770 5769 5770 5770 5771 5772 5772 5774 5776 5777 5777 5778 5780 5782 5783 5784 5785 5784 5784 5784 5784 5785 5786 5786 5786 5786 5787 5788 5788 5788 5788 5788 5788 5787 5787 5787 5787 5787 5788 5788 5789 5788 5788 5787 5787 5787 5786 5786 5786 5785 5785 5785 5784 5785 5785 5784 5782 5782 5783 5783 5783 5783 5783 5783
5750 5751 5752 5754 5755 5756 5757 5758 5759 5760 5761 5761 5762 5762 5762 5763 5764 5766 5767 5768 5768 5769 5770 5770 5770 5770 5769 5769 5769 5770 5770 5772 5774 5775 5776 5777 5779 5780 5781 5782 5782 5783 5783 5783 5784 5785 5785 5785 5784 5784 5785 5786 5787 5786 5786 5786 5786 5785 5785 5786 5786 5786 5787 5787 5787 5787 5787 5786 5786 5785 5785 5785 5784 5784 5784 5784 5784 5784 5784 5783 5782 5781 5782 5782 5781 5781 5782 5782
5748 5749 5751 5752 5753 5754 5755 5756 5757 5757 5758 5759 5759 5760 5760 5761 5763 5764 5766 5766 5766 5767 5768 5769 5770 5770 5770 5769 5767 5767 5768 5770 5772 5774 5775 5777 5778 5779 5779 5780 5780 5782 5782 5782 5782 5783 5783 5783 5782 5782 5783 5784 5784 5784 5784 5785 5784 5784 5784 5785 5785 5785 5786 5786 5786 5786 5785 5784 5784 5784 5783 5783 5783 5783 5783 5783 5783 5783 5782 5782 5781 5781 5780 5780 5780 5780 5780 5781
5746 5747 5749 5750 5751 5751 5753 5753 5754 5755 5755 5756 5757 5758 5759 5760 5761 5763 5764 5764 5765 5766 5767 5768 5768 5769 5769 5769 5768 5767 5767 5768 5770 5772 5773 5775 5776 5777 5777 5778 5779 5781 5781 5781 5781 5781 5781 5781 5780 5781 5782 5782 5782 5782 5783 5783 5783 5782 5783 5784 5784 5784 5785 5784 5784 5784 5783 5783 5783 5783 5782 5782 5782 5782 5782 5783 5782 5782 5781 5780 5780 5780 5780 5779 5780 5780 5780 5780
5744 5745 5747 5748 5748 5749 5750 5750 5751 5752 5753 5754 5755 5756 5758 5759 5760 5761 5762 5763 5764 5765 5766 5767 5767 5767 5767 5768 5768 5768 5767 5767 5768 5770 5771 5772 5773 5774 5775 5776 5777 5779 5779 5779 5779 5779 5779 5779 5779 5779 5780 5781 5781 5781 5781 5781 5781 5781 5782 5782 5782 5783 5783 5783 5783 5782 5782 5782 5781 5781 5781 5781 5781 5781 5781 5782 5781 5780 5779 5779 5779 5779 5779 5779 5779 5779 5779 5779